�N����,�����b,�ŏ������i�x�j,���ϕ����i�x�j,�ő啗���i�x�j,�ŏ�����(m/s),���ϕ���(m/s),�ő啗��(m/s),�C��(���j,���x�i���j,�C��(hPa),�~�J��(mm),�~�J����(�b�j,�~�J���x(mm/h),�ő�~�J���x(mm/h),�~�Ђ傤��(hit/���u),�~�Ђ傤����(�b�j,�~�Ђ傤���x(hit/���uh),�ő�~�Ђ傤���x(hit/���uh),�q�[�^���x(���j,�q�[�^�[�d���iV),�d���d���iV),�Q�Ɠd���iV)
2011/09/01,00:00:01,355,357,358,2.7,3.0,3.2,27.5,85.8,995.1,0.00,0,0.0,////,0.0,0,0.0,////,26.5,0.0,12.3,3.511
2011/09/01,00:10:01,313,326,342,1.3,1.7,2.2,27.5,85.7,995.0,0.00,0,0.0,////,0.0,0,0.0,////,26.7,0.0,12.3,3.511
2011/09/01,00:20:01,355,006,014,3.0,3.1,3.2,27.4,84.5,995.0,0.00,0,0.0,////,0.0,0,0.0,////,26.7,0.0,12.3,3.511
2011/09/01,00:30:01,339,345,355,0.7,1.0,1.6,27.5,84.6,995.0,0.00,0,0.0,////,0.0,0,0.0,////,26.7,0.0,12.3,3.511
2011/09/01,00:40:01,353,356,359,2.3,2.4,2.5,27.5,85.0,995.0,0.00,0,0.0,////,0.0,0,0.0,////,26.7,0.0,12.3,3.511
2011/09/01,00:50:01,342,347,354,2.4,2.7,2.9,27.5,85.2,994.9,0.00,0,0.0,////,0.0,0,0.0,////,26.7,0.0,12.3,3.511
2011/09/01,01:00:01,345,355,002,3.8,4.0,4.2,27.5,84.6,994.8,0.00,0,0.0,////,0.0,0,0.0,////,26.8,0.0,12.3,3.510
2011/09/01,01:10:01,326,334,345,3.5,3.8,4.1,27.6,84.4,994.9,0.00,0,0.0,////,0.0,0,0.0,////,26.8,0.0,12.3,3.513
2011/09/01,01:20:01,349,353,357,4.3,4.9,5.5,27.6,84.0,994.9,0.00,0,0.0,////,0.0,0,0.0,////,26.8,0.0,12.3,3.511
2011/09/01,01:30:01,335,342,353,4.2,4.5,4.7,27.6,83.8,994.9,0.00,0,0.0,////,0.0,0,0.0,////,26.8,0.0,12.3,3.513
2011/09/01,01:40:01,339,342,346,3.3,3.6,3.9,27.6,83.3,994.7,0.00,0,0.0,////,0.0,0,0.0,////,26.8,0.0,12.3,3.511
2011/09/01,01:50:01,346,348,351,4.3,4.9,5.2,27.6,83.6,994.6,0.00,0,0.0,////,0.0,0,0.0,////,26.5,0.0,12.3,3.513
2011/09/01,02:00:01,340,349,357,3.5,3.7,3.8,27.6,84.3,994.5,0.00,0,0.0,////,0.0,0,0.0,////,27.2,0.0,12.3,3.511
2011/09/01,02:10:01,341,354,001,3.4,3.9,4.4,27.5,84.7,994.5,0.00,0,0.0,////,0.0,0,0.0,////,26.8,0.0,12.3,3.511
2011/09/01,02:20:01,349,354,359,4.7,5.3,6.1,27.5,85.1,994.4,0.00,0,0.0,////,0.0,0,0.0,////,26.5,0.0,12.3,3.511
2011/09/01,02:30:01,337,347,354,5.3,5.6,6.0,27.5,84.7,994.3,0.00,0,0.0,////,0.0,0,0.0,////,26.7,0.0,12.3,3.511
2011/09/01,02:40:01,357,359,002,4.5,4.7,5.1,27.5,85.0,994.2,0.00,0,0.0,////,0.0,0,0.0,////,26.7,0.0,12.3,3.511
2011/09/01,02:50:01,328,331,335,0.9,1.4,2.1,27.5,84.5,994.2,0.00,0,0.0,////,0.0,0,0.0,////,26.8,0.0,12.3,3.511
2011/09/01,03:00:01,347,353,356,1.2,2.0,2.9,27.5,85.2,994.2,0.00,0,0.0,////,0.0,0,0.0,////,26.8,0.0,12.3,3.513
2011/09/01,03:10:01,299,331,353,2.6,3.2,4.2,27.5,85.5,994.2,0.00,0,0.0,////,0.0,0,0.0,////,26.8,0.0,12.2,3.511
2011/09/01,03:20:01,316,324,337,1.9,2.7,3.4,27.5,85.7,994.2,0.00,0,0.0,////,0.0,0,0.0,////,26.7,0.0,12.3,3.513
2011/09/01,03:30:01,310,321,328,2.0,2.1,2.4,27.5,86.3,994.2,0.00,0,0.0,////,0.0,0,0.0,////,26.7,0.0,12.3,3.511
2011/09/01,03:40:01,317,325,334,2.3,2.6,2.8,27.5,86.5,994.3,0.00,0,0.0,////,0.0,0,0.0,////,26.7,0.0,12.3,3.511
2011/09/01,03:50:01,329,343,010,2.4,3.0,3.6,27.5,86.8,994.3,0.00,0,0.0,////,0.0,0,0.0,////,26.5,0.0,12.3,3.511
2011/09/01,04:00:01,350,000,012,5.4,5.6,5.8,27.5,85.5,994.4,0.00,0,0.0,////,0.0,0,0.0,////,26.7,0.0,12.3,3.513
2011/09/01,04:10:01,007,011,016,2.5,2.8,3.0,27.5,85.8,994.3,0.00,0,0.0,////,0.0,0,0.0,////,26.7,0.0,12.3,3.511
2011/09/01,04:20:01,346,351,359,3.3,3.8,4.3,27.5,85.3,994.3,0.00,0,0.0,////,0.0,0,0.0,////,26.7,0.0,12.3,3.511
2011/09/01,04:30:01,327,352,021,3.5,3.8,4.3,27.5,84.6,994.1,0.00,0,0.0,////,0.0,0,0.0,////,26.7,0.0,12.3,3.511
2011/09/01,04:40:01,346,357,009,2.9,3.2,3.5,27.5,83.9,994.1,0.00,0,0.0,////,0.0,0,0.0,////,26.5,0.0,12.3,3.511
2011/09/01,04:50:01,351,356,358,5.4,5.8,6.1,27.5,84.9,994.1,0.00,0,0.0,////,0.0,0,0.0,////,26.7,0.0,12.3,3.513
2011/09/01,05:00:01,333,346,352,4.0,4.7,5.2,27.5,84.6,994.0,0.00,0,0.0,////,0.0,0,0.0,////,26.7,0.0,12.3,3.511
2011/09/01,05:10:01,340,345,351,3.0,4.1,5.2,27.6,84.1,994.1,0.00,0,0.0,////,0.0,0,0.0,////,26.8,0.0,12.3,3.511
2011/09/01,05:20:01,338,342,350,4.7,5.0,5.3,27.6,85.1,993.9,0.00,0,0.0,////,0.0,0,0.0,////,26.8,0.0,12.3,3.510
2011/09/01,05:30:01,347,350,353,4.4,4.8,5.4,27.6,84.8,993.8,0.00,0,0.0,////,0.0,0,0.0,////,26.5,0.0,12.3,3.511
2011/09/01,05:40:01,359,008,014,5.2,5.7,6.7,27.6,84.4,993.9,0.00,0,0.0,////,0.0,0,0.0,////,27.2,0.0,12.3,3.511
2011/09/01,05:50:01,308,337,006,1.5,2.1,2.7,27.6,84.5,993.9,0.00,0,0.0,////,0.0,0,0.0,////,26.8,0.0,12.3,3.511
2011/09/01,06:00:01,347,350,352,4.5,5.0,5.4,27.6,83.6,994.0,0.00,0,0.0,////,0.0,0,0.0,////,26.8,0.0,12.3,3.514
2011/09/01,06:10:01,345,351,355,4.9,5.6,6.5,27.6,84.6,994.0,0.00,0,0.0,////,0.0,0,0.0,////,26.8,0.0,12.3,3.513
2011/09/01,06:20:01,346,355,003,4.2,4.6,5.2,27.6,83.3,993.9,0.00,0,0.0,////,0.0,0,0.0,////,26.8,0.0,12.2,3.511
2011/09/01,06:30:01,345,356,005,3.3,3.8,4.1,27.6,83.4,993.9,0.00,0,0.0,////,0.0,0,0.0,////,27.5,0.0,12.3,3.513
2011/09/01,06:40:01,359,003,007,1.9,2.6,3.2,27.7,84.4,994.0,0.00,0,0.0,////,0.0,0,0.0,////,27.0,0.0,12.3,3.511
2011/09/01,06:50:01,311,338,356,2.9,3.7,4.6,27.7,84.5,994.1,0.00,0,0.0,////,0.0,0,0.0,////,27.2,0.0,12.3,3.513
2011/09/01,07:00:01,314,318,324,2.8,3.9,5.1,27.7,84.6,994.2,0.00,0,0.0,////,0.0,0,0.0,////,27.2,0.0,12.3,3.511
2011/09/01,07:10:01,308,319,328,1.7,2.4,3.5,27.8,84.6,994.4,0.00,0,0.0,////,0.0,0,0.0,////,27.5,0.0,12.3,3.513
2011/09/01,07:20:01,324,334,339,0.8,1.3,1.7,27.8,84.4,994.5,0.00,0,0.0,////,0.0,0,0.0,////,27.4,0.0,12.3,3.511
2011/09/01,07:30:01,323,333,343,1.7,2.1,2.7,28.0,84.2,994.5,0.00,0,0.0,////,0.0,0,0.0,////,28.1,0.0,12.3,3.511
2011/09/01,07:40:01,332,337,343,3.1,3.5,3.8,28.1,84.0,994.4,0.00,0,0.0,////,0.0,0,0.0,////,28.4,0.0,12.3,3.510
2011/09/01,07:50:01,330,340,355,4.8,5.2,5.5,28.1,83.9,994.4,0.00,0,0.0,////,0.0,0,0.0,////,28.6,0.0,12.3,3.511
2011/09/01,08:00:01,349,356,000,4.6,5.0,5.3,28.1,83.3,994.4,0.00,0,0.0,////,0.0,0,0.0,////,28.6,0.0,12.3,3.511
2011/09/01,08:10:01,340,349,002,5.1,5.3,5.6,28.2,83.7,994.4,0.00,0,0.0,////,0.0,0,0.0,////,28.9,0.0,12.3,3.509
2011/09/01,08:20:01,348,353,356,2.6,3.2,3.7,28.3,82.9,994.3,0.00,0,0.0,////,0.0,0,0.0,////,29.1,0.0,12.3,3.511
2011/09/01,08:30:01,314,319,326,4.1,4.9,5.6,28.5,82.0,994.2,0.00,0,0.0,////,0.0,0,0.0,////,29.6,0.0,12.3,3.510
2011/09/01,08:40:01,333,347,354,4.2,4.8,5.2,28.5,81.6,994.2,0.00,0,0.0,////,0.0,0,0.0,////,29.8,0.0,12.3,3.510
2011/09/01,08:50:01,336,340,348,2.9,4.1,5.5,28.6,80.9,994.2,0.00,0,0.0,////,0.0,0,0.0,////,30.0,0.0,12.3,3.511
2011/09/01,09:00:01,352,355,000,3.3,3.7,4.3,28.6,81.6,994.3,0.00,0,0.0,////,0.0,0,0.0,////,29.8,0.0,12.3,3.511
2011/09/01,09:10:01,303,331,003,0.9,1.2,1.5,28.8,81.2,994.2,0.00,0,0.0,////,0.0,0,0.0,////,30.5,0.0,12.3,3.511
2011/09/01,09:20:01,352,002,007,2.9,4.2,5.7,29.1,79.6,994.3,0.00,0,0.0,////,0.0,0,0.0,////,31.0,0.0,12.3,3.511
2011/09/01,09:30:01,343,352,358,4.0,4.2,4.4,28.9,80.4,994.4,0.00,0,0.0,////,0.0,0,0.0,////,30.6,0.0,12.3,3.511
2011/09/01,09:40:01,343,353,004,1.9,2.8,3.6,29.0,80.8,994.5,0.00,0,0.0,////,0.0,0,0.0,////,30.8,0.0,12.3,3.511
2011/09/01,09:50:01,293,299,303,1.4,2.3,2.9,29.3,79.5,994.5,0.00,0,0.0,////,0.0,0,0.0,////,31.5,0.0,12.3,3.511
2011/09/01,10:00:01,351,356,000,1.5,1.7,1.9,29.4,79.1,994.6,0.00,0,0.0,////,0.0,0,0.0,////,32.0,0.0,12.3,3.510
2011/09/01,10:10:01,301,328,353,0.9,1.5,2.0,29.5,78.8,994.6,0.00,0,0.0,////,0.0,0,0.0,////,32.2,0.0,12.2,3.511
2011/09/01,10:20:01,336,341,344,1.5,1.8,2.2,29.5,78.5,994.5,0.00,0,0.0,////,0.0,0,0.0,////,32.2,0.0,12.3,3.511
2011/09/01,10:30:01,343,355,021,2.2,2.5,2.7,29.3,79.4,994.5,0.00,0,0.0,////,0.0,0,0.0,////,32.0,0.0,12.3,3.511
2011/09/01,10:40:01,276,320,349,1.5,1.8,2.1,29.5,78.8,994.6,0.00,0,0.0,////,0.0,0,0.0,////,32.0,0.0,12.3,3.511
2011/09/01,10:50:01,295,305,312,3.4,4.2,4.8,29.5,78.9,994.6,0.00,0,0.0,////,0.0,0,0.0,////,32.2,0.0,12.3,3.511
2011/09/01,11:00:01,305,321,339,1.1,1.3,1.6,29.7,78.7,994.6,0.00,0,0.0,////,0.0,0,0.0,////,32.5,0.0,12.3,3.510
2011/09/01,11:10:01,279,302,320,2.3,2.8,3.1,29.8,78.2,994.6,0.00,0,0.0,////,0.0,0,0.0,////,32.9,0.0,12.3,3.511
2011/09/01,11:20:01,333,337,342,3.2,3.6,4.0,29.8,77.3,994.6,0.00,0,0.0,////,0.0,0,0.0,////,32.9,0.0,12.2,3.511
2011/09/01,11:30:01,284,306,334,1.1,1.4,1.6,30.2,76.6,994.6,0.00,0,0.0,////,0.0,0,0.0,////,33.2,0.0,12.3,3.511
2011/09/01,11:40:01,349,354,358,1.9,2.2,2.6,30.2,76.5,994.7,0.00,0,0.0,////,0.0,0,0.0,////,33.2,0.0,12.3,3.513
2011/09/01,11:50:01,324,330,339,1.8,1.9,1.9,30.4,76.1,994.6,0.00,0,0.0,////,0.0,0,0.0,////,33.7,0.0,12.3,3.510
2011/09/01,12:00:01,321,325,331,3.0,3.5,4.1,30.1,76.1,994.6,0.00,0,0.0,////,0.0,0,0.0,////,33.6,0.0,12.3,3.511
2011/09/01,12:10:01,321,326,330,3.5,4.6,5.2,30.2,76.0,994.6,0.00,0,0.0,////,0.0,0,0.0,////,33.4,0.0,12.3,3.511
2011/09/01,12:20:01,337,343,351,1.1,2.0,2.7,30.1,76.7,994.6,0.00,0,0.0,////,0.0,0,0.0,////,33.4,0.0,12.3,3.511
2011/09/01,12:30:01,323,330,333,2.1,3.2,3.9,30.0,76.8,994.6,0.00,0,0.0,////,0.0,0,0.0,////,32.7,0.0,12.3,3.511
2011/09/01,12:40:01,328,337,343,3.0,3.2,3.5,30.3,75.9,994.5,0.00,0,0.0,////,0.0,0,0.0,////,33.4,0.0,12.3,3.510
2011/09/01,12:50:01,331,336,343,1.8,2.6,3.3,30.0,76.3,994.4,0.00,0,0.0,////,0.0,0,0.0,////,32.7,0.0,12.2,3.511
2011/09/01,13:00:01,299,313,334,3.3,4.7,5.7,30.0,77.2,994.3,0.00,0,0.0,////,0.0,0,0.0,////,32.7,0.0,12.3,3.511
2011/09/01,13:10:01,321,325,329,3.4,4.7,6.1,30.0,78.2,994.3,0.00,0,0.0,////,0.0,0,0.0,////,32.7,0.0,12.3,3.510
2011/09/01,13:20:01,289,297,310,3.7,3.8,4.0,30.1,77.3,994.2,0.00,0,0.0,////,0.0,0,0.0,////,33.2,0.0,12.3,3.513
2011/09/01,13:30:01,306,316,327,2.6,3.3,4.0,29.9,77.5,994.3,0.00,0,0.0,////,0.0,0,0.0,////,32.5,0.0,12.3,3.511
2011/09/01,13:40:01,329,334,340,2.5,3.6,4.4,30.0,78.2,994.2,0.00,0,0.0,////,0.0,0,0.0,////,32.4,0.0,12.3,3.511
2011/09/01,13:50:01,304,313,332,1.3,1.7,2.2,30.1,77.4,994.1,0.00,0,0.0,////,0.0,0,0.0,////,32.7,0.0,12.3,3.510
2011/09/01,14:00:01,313,317,323,4.7,5.1,5.6,30.0,77.2,993.9,0.00,0,0.0,////,0.0,0,0.0,////,32.7,0.0,12.3,3.510
2011/09/01,14:10:01,343,348,358,1.6,2.8,3.7,29.9,77.9,993.7,0.00,0,0.0,////,0.0,0,0.0,////,32.2,0.0,12.3,3.511
2011/09/01,14:20:01,303,309,318,4.5,5.5,6.4,30.1,77.3,993.6,0.00,0,0.0,////,0.0,0,0.0,////,32.5,0.0,12.3,3.513
2011/09/01,14:30:01,343,359,015,2.7,2.9,3.1,30.3,76.5,993.4,0.00,0,0.0,////,0.0,0,0.0,////,32.9,0.0,12.3,3.510
2011/09/01,14:40:01,297,328,347,1.5,1.7,2.0,30.3,75.9,993.3,0.00,0,0.0,////,0.0,0,0.0,////,32.9,0.0,12.3,3.510
2011/09/01,14:50:01,337,352,003,1.3,1.6,2.0,30.2,76.6,993.2,0.00,0,0.0,////,0.0,0,0.0,////,32.7,0.0,12.3,3.510
2011/09/01,15:00:01,302,314,321,3.7,4.0,4.3,30.1,76.7,993.2,0.00,0,0.0,////,0.0,0,0.0,////,32.5,0.0,12.2,3.510
2011/09/01,15:10:01,287,327,353,0.4,1.1,2.1,30.0,77.9,993.1,0.00,0,0.0,////,0.0,0,0.0,////,32.0,0.0,12.3,3.511
2011/09/01,15:20:01,324,331,343,2.3,2.9,3.4,29.8,77.1,993.0,0.00,0,0.0,////,0.0,0,0.0,////,31.7,0.0,12.3,3.511
2011/09/01,15:30:01,282,303,337,1.2,1.5,2.2,29.9,77.0,993.0,0.00,0,0.0,////,0.0,0,0.0,////,31.8,0.0,12.3,3.511
2011/09/01,15:40:01,314,328,340,2.2,2.8,3.3,29.7,77.9,992.9,0.00,0,0.0,////,0.0,0,0.0,////,31.8,0.0,12.3,3.513
2011/09/01,15:50:01,318,324,333,3.6,4.3,5.0,29.7,77.1,992.9,0.00,0,0.0,////,0.0,0,0.0,////,31.5,0.0,12.2,3.513
2011/09/01,16:00:01,350,352,355,2.8,3.0,3.2,29.6,78.0,992.9,0.00,0,0.0,////,0.0,0,0.0,////,31.0,0.0,12.3,3.511
2011/09/01,16:10:01,317,323,328,3.2,3.8,4.6,29.6,76.9,993.0,0.00,0,0.0,////,0.0,0,0.0,////,31.0,0.0,12.3,3.511
2011/09/01,16:20:01,318,347,006,2.4,3.1,4.5,29.7,77.7,992.9,0.00,0,0.0,////,0.0,0,0.0,////,31.2,0.0,12.3,3.510
2011/09/01,16:30:01,307,319,330,1.4,1.6,1.8,29.7,77.7,993.0,0.00,0,0.0,////,0.0,0,0.0,////,31.0,0.0,12.3,3.511
2011/09/01,16:40:01,322,336,343,2.4,3.0,3.7,29.7,77.3,993.0,0.00,0,0.0,////,0.0,0,0.0,////,31.2,0.0,12.3,3.513
2011/09/01,16:50:01,311,320,327,2.2,2.9,3.7,29.6,77.1,992.9,0.00,0,0.0,////,0.0,0,0.0,////,30.8,0.0,12.3,3.511
2011/09/01,17:00:01,300,322,335,1.6,2.0,2.4,29.5,78.1,992.9,0.00,0,0.0,////,0.0,0,0.0,////,30.3,0.0,12.3,3.511
2011/09/01,17:10:01,322,324,325,2.0,2.2,2.5,29.5,77.1,993.0,0.00,0,0.0,////,0.0,0,0.0,////,30.5,0.0,12.2,3.511
2011/09/01,17:20:01,315,318,323,5.3,5.6,6.1,29.4,77.3,993.1,0.00,0,0.0,////,0.0,0,0.0,////,30.3,0.0,12.2,3.511
2011/09/01,17:30:01,263,302,338,2.0,2.6,3.0,29.2,77.4,993.1,0.00,0,0.0,////,0.0,0,0.0,////,30.0,0.0,12.3,3.511
2011/09/01,17:40:01,284,299,319,1.2,2.0,2.9,29.1,78.2,993.1,0.00,0,0.0,////,0.0,0,0.0,////,29.6,0.0,12.3,3.511
2011/09/01,17:50:01,290,301,307,4.7,5.1,5.4,29.0,79.0,993.0,0.00,0,0.0,////,0.0,0,0.0,////,29.3,0.0,12.2,3.511
2011/09/01,18:00:01,313,316,318,1.1,2.0,2.9,28.9,79.7,993.1,0.00,0,0.0,////,0.0,0,0.0,////,29.1,0.0,12.3,3.511
2011/09/01,18:10:01,303,313,318,2.9,3.2,3.5,28.8,79.5,993.2,0.00,0,0.0,////,0.0,0,0.0,////,28.9,0.0,12.3,3.511
2011/09/01,18:20:01,318,337,348,2.7,3.4,3.8,28.6,80.8,993.1,0.00,0,0.0,////,0.0,0,0.0,////,28.6,0.0,12.2,3.511
2011/09/01,18:30:01,347,011,060,1.0,1.3,2.0,28.5,81.6,993.1,0.00,0,0.0,////,0.0,0,0.0,////,28.2,0.0,12.3,3.511
2011/09/01,18:40:01,299,328,345,1.6,1.8,1.9,28.4,81.3,993.0,0.00,0,0.0,////,0.0,0,0.0,////,28.4,0.0,12.3,3.511
2011/09/01,18:50:01,316,328,343,1.5,2.6,4.0,28.3,82.1,993.0,0.00,0,0.0,////,0.0,0,0.0,////,27.5,0.0,12.3,3.511
2011/09/01,19:00:01,296,304,315,3.3,3.5,3.7,28.3,82.2,993.2,0.00,0,0.0,////,0.0,0,0.0,////,27.5,0.0,12.3,3.513
2011/09/01,19:10:01,323,329,339,2.8,3.2,3.7,28.2,82.2,993.3,0.00,0,0.0,////,0.0,0,0.0,////,27.5,0.0,12.3,3.511
2011/09/01,19:20:01,346,350,352,3.8,4.4,5.5,28.2,81.7,993.3,0.00,0,0.0,////,0.0,0,0.0,////,27.5,0.0,12.2,3.511
2011/09/01,19:30:01,310,317,326,2.0,3.0,4.3,28.1,81.1,993.5,0.00,0,0.0,////,0.0,0,0.0,////,27.4,0.0,12.3,3.511
2011/09/01,19:40:01,322,329,337,2.9,3.6,4.4,28.1,80.6,993.7,0.00,0,0.0,////,0.0,0,0.0,////,27.4,0.0,12.3,3.511
2011/09/01,19:50:01,321,328,337,2.8,3.3,3.7,28.1,81.9,993.7,0.00,0,0.0,////,0.0,0,0.0,////,27.2,0.0,12.3,3.511
2011/09/01,20:00:01,313,327,340,2.4,2.9,5.0,28.0,81.6,993.8,0.00,0,0.0,////,0.0,0,0.0,////,27.4,0.0,12.3,3.513
2011/09/01,20:10:01,309,319,334,3.8,4.3,4.6,28.0,82.1,993.8,0.00,0,0.0,////,0.0,0,0.0,////,27.2,0.0,12.3,3.513
2011/09/01,20:20:01,309,330,004,0.9,1.5,2.3,28.0,81.8,993.8,0.00,0,0.0,////,0.0,0,0.0,////,27.4,0.0,12.3,3.511
2011/09/01,20:30:01,311,319,328,5.2,5.8,6.4,28.0,82.1,994.0,0.00,0,0.0,////,0.0,0,0.0,////,27.2,0.0,12.3,3.511
2011/09/01,20:40:01,292,317,331,4.0,4.7,5.7,28.0,82.1,994.2,0.00,0,0.0,////,0.0,0,0.0,////,27.2,0.0,12.3,3.511
2011/09/01,20:50:01,320,324,327,1.5,1.9,2.6,28.0,81.8,994.2,0.00,0,0.0,////,0.0,0,0.0,////,27.0,0.0,12.3,3.511
2011/09/01,21:00:01,291,307,315,1.9,3.2,4.0,28.0,82.1,994.3,0.00,0,0.0,////,0.0,0,0.0,////,27.2,0.0,12.3,3.510
2011/09/01,21:10:01,326,332,336,2.5,2.9,3.4,27.9,82.5,994.2,0.00,0,0.0,////,0.0,0,0.0,////,27.2,0.0,12.3,3.510
2011/09/01,21:20:01,274,285,293,1.0,1.6,2.1,27.9,83.2,994.2,0.00,0,0.0,////,0.0,0,0.0,////,27.2,0.0,12.3,3.511
2011/09/01,21:30:01,305,319,340,1.8,2.6,3.2,27.9,83.4,994.2,0.00,0,0.0,////,0.0,0,0.0,////,26.8,0.0,12.3,3.511
2011/09/01,21:40:01,321,328,334,1.5,1.9,2.3,27.8,82.8,994.2,0.00,0,0.0,////,0.0,0,0.0,////,26.8,0.0,12.3,3.514
2011/09/01,21:50:01,303,320,336,1.3,1.5,1.7,27.9,82.4,994.1,0.00,0,0.0,////,0.0,0,0.0,////,27.0,0.0,12.3,3.511
2011/09/01,22:00:01,333,347,358,2.3,2.7,3.3,27.9,81.6,994.0,0.00,0,0.0,////,0.0,0,0.0,////,27.0,0.0,12.3,3.510
2011/09/01,22:10:01,325,335,349,1.6,2.8,3.7,27.9,81.9,993.9,0.00,0,0.0,////,0.0,0,0.0,////,27.4,0.0,12.3,3.514
2011/09/01,22:20:01,330,337,341,1.2,1.8,2.6,27.8,82.3,993.8,0.00,0,0.0,////,0.0,0,0.0,////,27.0,0.0,12.3,3.510
2011/09/01,22:30:01,286,316,337,2.9,3.2,3.7,27.8,82.3,993.7,0.00,0,0.0,////,0.0,0,0.0,////,27.0,0.0,12.3,3.511
2011/09/01,22:40:01,258,281,304,1.6,2.3,2.8,27.8,83.0,993.7,0.00,0,0.0,////,0.0,0,0.0,////,26.8,0.0,12.3,3.510
2011/09/01,22:50:01,278,300,318,4.0,4.5,5.5,27.8,82.4,993.6,0.00,0,0.0,////,0.0,0,0.0,////,26.8,0.0,12.2,3.510
2011/09/01,23:00:01,303,308,314,2.4,2.9,3.3,27.8,81.9,993.6,0.00,0,0.0,////,0.0,0,0.0,////,26.8,0.0,12.3,3.513
2011/09/01,23:10:01,268,296,333,1.3,1.9,2.6,27.8,82.7,993.8,0.00,0,0.0,////,0.0,0,0.0,////,27.0,0.0,12.3,3.513
2011/09/01,23:20:01,299,312,326,2.9,3.2,3.5,27.8,82.3,993.8,0.00,0,0.0,////,0.0,0,0.0,////,27.2,0.0,12.3,3.510
2011/09/01,23:30:01,320,323,325,4.0,4.3,4.6,27.9,82.7,993.8,0.00,0,0.0,////,0.0,0,0.0,////,27.2,0.0,12.2,3.510
2011/09/01,23:40:01,291,311,344,0.7,1.6,2.2,27.8,81.9,993.8,0.00,0,0.0,////,0.0,0,0.0,////,27.2,0.0,12.3,3.511
2011/09/01,23:50:01,303,305,307,2.1,2.9,3.6,27.8,81.6,993.7,0.00,0,0.0,////,0.0,0,0.0,////,27.4,0.0,12.2,3.511
2011/09/02,00:00:01,306,329,357,0.8,2.6,3.9,27.8,81.0,993.7,0.00,0,0.0,////,0.0,0,0.0,////,27.0,0.0,12.3,3.511
2011/09/02,00:10:01,289,305,317,1.6,2.9,3.9,27.8,80.5,993.6,0.00,0,0.0,////,0.0,0,0.0,////,27.0,0.0,12.2,3.511
2011/09/02,00:20:01,219,262,306,0.5,1.2,1.7,27.8,81.1,993.5,0.00,0,0.0,////,0.0,0,0.0,////,26.8,0.0,12.3,3.511
2011/09/02,00:30:01,296,300,307,5.3,6.0,6.9,27.7,81.1,993.5,0.00,0,0.0,////,0.0,0,0.0,////,26.8,0.0,12.3,3.511
2011/09/02,00:40:01,285,295,309,2.7,3.2,4.1,27.7,80.6,993.4,0.00,0,0.0,////,0.0,0,0.0,////,26.8,0.0,12.3,3.511
2011/09/02,00:50:01,306,318,328,1.4,2.1,2.9,27.7,81.0,993.3,0.00,0,0.0,////,0.0,0,0.0,////,26.8,0.0,12.3,3.510
2011/09/02,01:00:01,280,300,326,1.6,1.9,2.5,27.7,81.4,993.2,0.00,0,0.0,////,0.0,0,0.0,////,27.2,0.0,12.2,3.511
2011/09/02,01:10:01,190,320,027,0.6,0.9,1.3,27.7,80.5,993.1,0.00,0,0.0,////,0.0,0,0.0,////,26.8,0.0,12.3,3.513
2011/09/02,01:20:01,239,277,311,1.4,1.8,2.1,27.6,79.8,993.0,0.00,0,0.0,////,0.0,0,0.0,////,27.4,0.0,12.4,3.511
2011/09/02,01:30:01,288,295,301,2.5,2.8,3.0,27.6,79.7,992.9,0.00,0,0.0,////,0.0,0,0.0,////,26.7,0.0,12.2,3.511
2011/09/02,01:40:01,278,299,314,2.2,3.0,4.2,27.6,81.0,992.8,0.00,0,0.0,////,0.0,0,0.0,////,26.8,0.0,12.3,3.513
2011/09/02,01:50:01,264,269,275,2.8,3.0,3.2,27.7,82.2,992.7,0.00,0,0.0,////,0.0,0,0.0,////,27.0,0.0,12.3,3.511
2011/09/02,02:00:01,305,312,321,3.1,4.2,5.9,27.6,82.7,992.7,0.00,0,0.0,////,0.0,0,0.0,////,26.8,0.0,12.3,3.510
2011/09/02,02:10:01,306,317,334,2.6,2.8,3.1,27.7,82.7,992.8,0.00,0,0.0,////,0.0,0,0.0,////,26.8,0.0,12.2,3.511
2011/09/02,02:20:01,289,292,295,1.4,1.7,2.0,27.7,81.8,992.7,0.00,0,0.0,////,0.0,0,0.0,////,27.0,0.0,12.3,3.511
2011/09/02,02:30:01,314,327,342,3.2,3.7,4.4,27.8,82.3,992.7,0.00,0,0.0,////,0.0,0,0.0,////,27.0,0.0,12.3,3.510
2011/09/02,02:40:01,314,348,013,1.6,1.8,2.1,27.7,81.3,992.6,0.00,0,0.0,////,0.0,0,0.0,////,27.0,0.0,12.3,3.513
2011/09/02,02:50:01,330,337,345,3.7,3.9,4.1,27.7,82.5,992.4,0.00,0,0.0,////,0.0,0,0.0,////,27.0,0.0,12.3,3.511
2011/09/02,03:00:01,308,322,337,2.4,3.1,4.0,27.7,80.8,992.4,0.00,0,0.0,////,0.0,0,0.0,////,27.0,0.0,12.4,3.511
2011/09/02,03:10:01,341,358,009,2.3,3.3,4.5,27.7,81.2,992.3,0.00,0,0.0,////,0.0,0,0.0,////,26.8,0.0,12.3,3.513
2011/09/02,03:20:01,323,332,346,1.0,1.6,2.1,27.6,80.6,992.3,0.00,0,0.0,////,0.0,0,0.0,////,27.0,0.0,12.3,3.511
2011/09/02,03:30:01,303,311,321,4.2,4.6,5.3,27.7,81.0,992.2,0.00,0,0.0,////,0.0,0,0.0,////,26.8,0.0,12.3,3.510
2011/09/02,03:40:01,320,337,353,3.7,4.9,5.9,27.6,79.6,992.2,0.00,0,0.0,////,0.0,0,0.0,////,26.8,0.0,12.3,3.511
2011/09/02,03:50:01,316,322,329,3.0,3.8,4.5,27.6,80.6,992.1,0.00,0,0.0,////,0.0,0,0.0,////,27.2,0.0,12.3,3.511
2011/09/02,04:00:01,311,326,335,2.4,2.8,3.2,27.6,79.4,992.1,0.00,0,0.0,////,0.0,0,0.0,////,26.7,0.0,12.3,3.513
2011/09/02,04:10:01,357,030,055,1.0,1.4,1.6,27.6,80.4,992.0,0.00,0,0.0,////,0.0,0,0.0,////,26.7,0.0,12.2,3.511
2011/09/02,04:20:01,289,297,303,2.9,3.6,4.3,27.6,78.3,992.0,0.00,0,0.0,////,0.0,0,0.0,////,26.8,0.0,12.3,3.513
2011/09/02,04:30:01,326,336,347,2.9,3.2,3.7,27.5,78.2,992.0,0.00,0,0.0,////,0.0,0,0.0,////,26.7,0.0,12.3,3.511
2011/09/02,04:40:01,293,311,326,2.4,4.6,6.6,27.5,78.7,992.1,0.00,0,0.0,////,0.0,0,0.0,////,26.7,0.0,12.3,3.511
2011/09/02,04:50:01,314,330,344,2.7,2.9,3.0,27.6,76.9,992.1,0.00,0,0.0,////,0.0,0,0.0,////,26.7,0.0,12.3,3.511
2011/09/02,05:00:01,331,339,345,1.9,2.9,3.8,27.5,78.5,992.2,0.00,0,0.0,////,0.0,0,0.0,////,27.2,0.0,12.3,3.514
2011/09/02,05:10:01,304,308,314,4.7,5.0,5.2,27.5,78.0,992.3,0.00,0,0.0,////,0.0,0,0.0,////,26.7,0.0,12.3,3.511
2011/09/02,05:20:01,318,334,345,2.4,3.0,3.6,27.6,77.1,992.4,0.00,0,0.0,////,0.0,0,0.0,////,26.7,0.0,12.3,3.513
2011/09/02,05:30:01,312,318,323,4.7,6.0,6.8,27.6,77.0,992.5,0.00,0,0.0,////,0.0,0,0.0,////,26.8,0.0,12.3,3.511
2011/09/02,05:40:01,295,313,327,1.5,2.8,3.9,27.6,77.7,992.5,0.00,0,0.0,////,0.0,0,0.0,////,26.7,0.0,12.3,3.513
2011/09/02,05:50:01,284,301,324,3.4,4.2,5.4,27.6,79.0,992.5,0.00,0,0.0,////,0.0,0,0.0,////,26.7,0.0,12.3,3.511
2011/09/02,06:00:01,294,317,334,2.6,3.3,4.0,27.6,78.2,992.6,0.00,0,0.0,////,0.0,0,0.0,////,26.7,0.0,12.3,3.513
2011/09/02,06:10:01,286,290,297,3.4,4.2,4.9,27.6,78.3,992.6,0.00,0,0.0,////,0.0,0,0.0,////,26.7,0.0,12.3,3.513
2011/09/02,06:20:01,320,324,329,0.5,0.8,1.2,27.5,77.6,992.7,0.00,0,0.0,////,0.0,0,0.0,////,26.3,0.0,12.3,3.511
2011/09/02,06:30:01,284,306,327,1.9,2.8,3.6,27.5,78.4,992.9,0.00,0,0.0,////,0.0,0,0.0,////,26.7,0.0,12.3,3.513
2011/09/02,06:40:01,323,341,357,2.7,3.6,4.1,27.6,78.4,993.1,0.00,0,0.0,////,0.0,0,0.0,////,26.7,0.0,12.4,3.511
2011/09/02,06:50:01,292,309,339,1.8,2.5,3.9,27.6,77.8,993.3,0.00,0,0.0,////,0.0,0,0.0,////,26.8,0.0,12.2,3.510
2011/09/02,07:00:01,259,296,319,0.7,1.3,1.8,27.7,76.8,993.4,0.00,0,0.0,////,0.0,0,0.0,////,27.2,0.0,12.3,3.511
2011/09/02,07:10:01,290,299,317,1.2,2.3,3.5,27.8,77.7,993.3,0.00,0,0.0,////,0.0,0,0.0,////,27.7,0.0,12.3,3.511
2011/09/02,07:20:01,254,262,270,3.7,4.0,4.6,27.9,76.1,993.5,0.00,0,0.0,////,0.0,0,0.0,////,27.9,0.0,12.3,3.511
2011/09/02,07:30:01,313,328,340,1.8,2.3,2.7,28.0,75.2,993.5,0.00,0,0.0,////,0.0,0,0.0,////,27.9,0.0,12.3,3.510
2011/09/02,07:40:01,313,321,330,2.0,2.6,3.1,28.1,75.1,993.6,0.00,0,0.0,////,0.0,0,0.0,////,28.6,0.0,12.3,3.511
2011/09/02,07:50:01,314,325,335,2.3,3.6,4.7,28.1,76.1,993.7,0.00,0,0.0,////,0.0,0,0.0,////,28.7,0.0,12.3,3.511
2011/09/02,08:00:01,293,330,009,0.7,1.2,1.6,28.0,76.8,993.8,0.00,0,0.0,////,0.0,0,0.0,////,28.2,0.0,12.4,3.511
2011/09/02,08:10:01,294,298,300,2.3,4.1,5.6,28.2,75.4,993.8,0.00,0,0.0,////,0.0,0,0.0,////,28.6,0.0,12.3,3.511
2011/09/02,08:20:01,281,296,319,1.8,2.4,3.5,28.3,75.2,993.9,0.00,0,0.0,////,0.0,0,0.0,////,29.3,0.0,12.3,3.513
2011/09/02,08:30:01,294,297,299,0.9,1.1,1.3,28.4,75.1,993.9,0.00,0,0.0,////,0.0,0,0.0,////,29.4,0.0,12.3,3.511
2011/09/02,08:40:01,290,300,315,2.1,2.8,3.3,28.5,74.4,993.9,0.00,0,0.0,////,0.0,0,0.0,////,29.4,0.0,12.3,3.511
2011/09/02,08:50:01,292,299,308,4.1,4.8,5.3,28.5,75.1,994.0,0.00,0,0.0,////,0.0,0,0.0,////,29.3,0.0,12.3,3.511
2011/09/02,09:00:01,295,297,299,3.0,3.3,3.6,28.7,75.6,994.0,0.00,0,0.0,////,0.0,0,0.0,////,30.1,0.0,12.3,3.511
2011/09/02,09:10:01,296,317,331,2.2,2.6,3.2,28.7,73.6,994.2,0.00,0,0.0,////,0.0,0,0.0,////,30.3,0.0,12.3,3.510
2011/09/02,09:20:01,295,307,320,2.7,3.3,3.7,28.7,73.1,994.3,0.00,0,0.0,////,0.0,0,0.0,////,30.0,0.0,12.2,3.511
2011/09/02,09:30:01,284,337,008,0.9,1.4,2.0,28.8,71.8,994.2,0.00,0,0.0,////,0.0,0,0.0,////,30.3,0.0,12.3,3.511
2011/09/02,09:40:01,301,317,326,3.6,3.7,3.8,29.0,70.4,994.2,0.00,0,0.0,////,0.0,0,0.0,////,30.6,0.0,12.3,3.513
2011/09/02,09:50:01,280,305,338,1.4,2.6,4.4,29.0,71.6,994.2,0.00,0,0.0,////,0.0,0,0.0,////,31.0,0.0,12.3,3.510
2011/09/02,10:00:01,261,265,272,3.7,4.1,4.8,29.2,72.2,994.2,0.00,0,0.0,////,0.0,0,0.0,////,31.7,0.0,12.3,3.511
2011/09/02,10:10:01,283,296,317,1.9,2.5,3.0,29.3,72.0,994.0,0.00,0,0.0,////,0.0,0,0.0,////,31.7,0.0,12.3,3.511
2011/09/02,10:20:01,149,171,188,0.2,0.4,0.5,29.5,71.7,994.0,0.00,0,0.0,////,0.0,0,0.0,////,32.0,0.0,12.3,3.511
2011/09/02,10:30:01,288,305,319,1.6,2.2,2.5,29.1,72.5,994.1,0.00,0,0.0,////,0.0,0,0.0,////,31.2,0.0,12.3,3.511
2011/09/02,10:40:01,269,282,297,2.5,3.8,4.9,29.3,71.7,994.1,0.00,0,0.0,////,0.0,0,0.0,////,31.5,0.0,12.3,3.513
2011/09/02,10:50:01,232,256,269,1.0,1.2,1.4,29.4,72.1,994.1,0.00,0,0.0,////,0.0,0,0.0,////,31.7,0.0,12.3,3.513
2011/09/02,11:00:01,283,308,331,1.1,2.5,4.1,29.4,71.9,994.0,0.00,0,0.0,////,0.0,0,0.0,////,31.7,0.0,12.2,3.510